User: anonymous   Login
Location: Chandrammap?lem
(16.9200°N, 81.0051°E)
Time: 06:13:12
(UTC+00:00)
Language:

CSL-04 Rocket - Orbit

View from above orbital plane
View from above orbital plane
View from above satellite
View from above satellite

Ground track
Ground track

The orbit data is extracted from the following two-line orbital elements,

1 25732U 99025C   24202.87472399  .00000248  00000-0  14179-3 0  9992
2 25732  98.7495 247.5181 0036178 258.8626 275.3176 14.17986527303572
Epoch (UTC): 20 July 2024 20:59:36
Eccentricity: 0.0036178
inclination: 98.7495°
perigee height: 806 km
apogee height: 858 km
right ascension of ascending node: 247.5181°
argument of perigee: 258.8626°
revolutions per day: 14.17986527
mean anomaly at epoch: 275.3176°
orbit number at epoch: 30357

The dashed part of the orbit path shows where the satellite is in the earth's shadow,  

DLR